Location: Cubitt Town
(51.4833°N, 0.0000°E)
Time: 00:28:52
(UTC+00:00)

Cosmos-2242 - Pass Details

Date: 15 May 2026
Orbit: 565 x 588 km, 82.5° (Epoch: 9 June)

Event Time Altitude Azimuth Distance (km) Brightness Sun altitude
Exits shadow 21:37:53 20° 127° (SE) 1,345 4.2 -13.3°
Maximum altitude 21:39:37 27° 89° (E) 1,119 4.1 -13.4°
Drops below altitude 10° 21:43:06 10° 32° (NNE) 1,876 5.9 -13.7°
Sets 21:45:31 0° 20° (NNE) 2,777 7.0 -13.9°
